Regional Weather Roundup
Issued by NWS Newport/Morehead, NC

Current Version | Previous Version | Text Only | Print | Product List | Glossary On
Versions: 1 2 3 4 5 6 7 8 9 10 11 12 13 14 15 16 17 18 19 20 21 22 23 24 25 26 27 28 29 30 31 32 33 34 35 36 37 38 39 40 41 42 43 44 45 46 47 48 49 50
000 ASUS42 KMHX 272125 RWRMHX WEATHER ROUNDUP FOR EASTERN NORTH CAROLINA NATIONAL WEATHER SERVICE NEWPORT/MOREHEAD CITY NC 500 PM EDT SAT AUG 27 2016 NOTE: "FAIR" INDICATES FEW OR NO CLOUDS BELOW 12,000 FEET WITH NO SIGNIFICANT WEATHER AND/OR OBSTRUCTIONS TO VISIBILITY NCZ015>017-031-032-045>047-102-103-272200- NORTH COAST CITY SKY/WX TMP DP RH WIND PRES REMARKS EDENTON MOSUNNY 91 72 53 E8 30.08F ELIZABETH CITY SUNNY 88 73 61 NE15 30.09S KITTY HAWK CLEAR 87 81 82 NE6 30.08F HX 105 MANTEO SUNNY 84 78 80 E12 30.09F $$ NCZ045>047-081-094-103-104-272200- CENTRAL COAST CITY SKY/WX TMP DP RH WIND PRES REMARKS FRISCO MOSUNNY 86 77 74 NE7 30.08S $$ NCZ095-097-098-100-101-272200- SOUTHERN COAST CITY SKY/WX TMP DP RH WIND PRES REMARKS BEAUFORT N/A 87 76 69 E12 30.06F CEDAR ISLAND NOT AVBL JACKSONVILLE LGT RAIN 86 74 67 S9 30.05S PINEY ISLAND NOT AVBL WILMINGTON SUNNY 88 74 63 E8 30.06F $$ NCZ011>013-027>030-043-044-078>080-089-090>093-098-272200- COASTAL PLAIN CITY SKY/WX TMP DP RH WIND PRES REMARKS AHOSKIE SUNNY 90 67 47 NE5 30.08F CLINTON SUNNY 89 80 73 CALM 30.05F HX 105 ELIZABETHTOWN MOSUNNY 93 74 53 S6 30.04F HX 102 GOLDSBORO MOSUNNY 85 80 84 E6 30.04F GREENVILLE SUNNY 95 72 46 E13G18 30.07S HX 103 HAVELOCK CLOUDY 88 76 67 SE6 30.07S KENANSVILLE MOSUNNY 90 73 58 E3 30.05F KINSTON MOSUNNY 93 72 49 E10G16 30.06S HX 100 NEW BERN CLOUDY 87 72 60 SE10G18 30.07S RICHLANDS MOSUNNY 89 75 63 E6 30.05F ROCKY MOUNT MOSUNNY 95 72 47 VRB5 30.05F HX 103 WASHINGTON SUNNY 91 72 55 E12 30.06S WHITEVILLE MOSUNNY 92 72 52 SE8 30.04F $$ AMZ130-135-150-152-154-156-158-170-250-252-270-ANZ085-086-088-633-658-670-272200- MARINE OBSERVATIONS STATION/POSITION TIME TEMP WIND PRES WAVE SWELL AIR SEA DIR/SP/G HT/PER HT/PER (UTC) (F) (DEG/KT/KT) (MB) (FT/S) (FT/S) CHESAPEAKE LIGHT NOT AVBL 64 E VA BEACH 2050 81 82 40/ 12/ 16 1018.7 3/ 9 2/ 9 DUCK 2100 80 79 30/ 12/ 14 1018.3 2 E DUCK 2011 80 N/A 2/ 9 OREGON INLET 2100 82 82 30/ 8/ 11 1018.6 13E OREGON INLT 2100 82 N/A 3/ 8 3/ 8 HATTERAS CG 2100 85 84 60/ 8/ 12 1018.3 DIAMOND BUOY 2050 83 85 50/ 6/ 8 1018.5 3/ 8 3/ 8 CAPE LOOKOUT 2100 83 100/ 10/ 11 1017.8 BEAUFORT LAB 2100 84 82 120/ 10/ 13 1017.3 30 SE NEW RVR IN 2108 84 85 110/ 8/ 10 1018.0 30 SE NEW RVR IN 2025 85 N/A 3/ 9 27 SE WRIGHTSVLE 2108 84 85 100/ 6/ 10 1018.1 5 SE WRIGHTSVLE 2008 83 85 130/ 6/ 10 1019.2 225 S CAPE HAT 2050 83 84 60/ 16/ 17 1016.0 5/ 8 3/ 8 41 SE CHARLESTON 2050 84 85 70/ 12/ 16 1016.9 4/10 3/10 $$

USA.gov is the U.S. government's official web portal to all federal, state and local government web resources and services.